Weather History for Fort Smith, AR

Change the Weather History Date:

Saturday, November 26, 2011

  Actual Average Record
Temperature  
Mean Temperature 56 °F 47 °F  
Max Temperature 64 °F 58 °F 82 °F (1965)
Min Temperature 47 °F 36 °F 17 °F (1975)
Degree Days  
Heating Degree Days 9 18  
Month to date heating degree days 235 336  
Since 1 July heating degree days 346 490  
Growing Degree Days 4 (Base 50)    
Moisture  
Dew Point 49 °F    
Average Humidity 80    
Maximum Humidity 93    
Minimum Humidity 66    
Precipitation  
Precipitation 0.39 in 0.14 in 1.90 in (1893)
Month to date precipitation 7.19 3.87  
Year to date precipitation 43.12 41.60  
Sea Level Pressure  
Sea Level Pressure 29.91 in    
Wind  
Wind Speed 10 mph (North)    
Max Wind Speed 21 mph    
Max Gust Speed 30 mph    
Visibility 8 miles    
Events Rain    
T = Trace of Precipitation, MM = Missing Value Source: NWS Daily Summary

Daily Weather History Graph

Daily Weather History Graph

Search for Another Location

Airport:

Trip Planner

Search our weather history database for the weather conditions in past years. The results will help you decide how hot, cold, wet, or windy it might be!

Date:

Astronomy

Nov. 26, 2011 Rise Set
Actual Time 7:03 AM CST 5:06 PM CST
Civil Twilight 6:35 AM CST 5:33 PM CST
Nautical Twilight 6:04 AM CST 6:04 PM CST
Astronomical Twilight 5:33 AM CST 6:35 PM CST
Moon 8:32 AM CST 6:40 PM CST
Length of Visible Light 10h 58m
Length of Day
10h 03m
Waxing Crescent, 3% of the Moon is Illuminated
Nov 26
Waxing Crescent
Dec 2
First Quarter
Dec 10
Full
Dec 17
Last Quarter
Dec 24
New

Hourly Weather History & Observations

Time (CST) Temp. Windchill Dew Point Humidity Pressure Visibility Wind Dir Wind Speed Gust Speed Precip Events Conditions
12:53 AM 57.0 °F - 50.0 °F 77% 29.89 in 10.0 mi NE 6.9 mph - N/A   Clear
1:53 AM 55.9 °F - 50.0 °F 80% 29.86 in 10.0 mi ENE 5.8 mph - N/A   Scattered Clouds
2:53 AM 57.0 °F - 51.1 °F 81% 29.86 in 10.0 mi NE 5.8 mph - N/A   Overcast
3:53 AM 57.9 °F - 52.0 °F 81% 29.85 in 10.0 mi NNE 4.6 mph - N/A   Overcast
4:53 AM 57.9 °F - 52.0 °F 81% 29.84 in 10.0 mi NE 3.5 mph - N/A   Overcast
5:53 AM 57.9 °F - 53.1 °F 84% 29.82 in 10.0 mi East 4.6 mph - 0.00 in Rain Light Rain
6:53 AM 57.9 °F - 55.0 °F 90% 29.84 in 3.0 mi NNE 6.9 mph - 0.11 in Rain Heavy Rain
7:38 AM 57.2 °F - 55.4 °F 94% 29.87 in 5.0 mi Calm Calm - 0.10 in Rain Light Rain
7:53 AM 57.9 °F - 55.9 °F 93% 29.86 in 4.0 mi NNE 3.5 mph - 0.11 in Rain Light Rain
8:21 AM 57.2 °F - 55.4 °F 94% 29.87 in 2.5 mi ENE 4.6 mph - N/A Rain Light Rain
8:33 AM 57.2 °F - 55.4 °F 94% 29.87 in 3.0 mi East 3.5 mph - 0.04 in Rain Light Rain
8:53 AM 57.9 °F - 55.9 °F 93% 29.86 in 3.0 mi East 5.8 mph - 0.07 in Rain Light Rain
9:53 AM 60.1 °F - 57.0 °F 90% 29.85 in 5.0 mi East 5.8 mph - 0.07 in Rain Rain
10:53 AM 61.0 °F - 57.0 °F 87% 29.84 in 10.0 mi ESE 3.5 mph - 0.01 in   Overcast
11:53 AM 62.1 °F - 57.9 °F 86% 29.82 in 10.0 mi South 4.6 mph - N/A   Overcast
12:41 PM 62.6 °F - 57.2 °F 82% 29.81 in 10.0 mi SSW 9.2 mph - N/A   Overcast
12:53 PM 62.1 °F - 57.0 °F 84% 29.81 in 4.0 mi South 13.8 mph 18.4 mph 0.01 in Rain Light Rain
1:29 PM 59.0 °F - 53.6 °F 82% 29.83 in 10.0 mi NW 15.0 mph - 0.00 in   Overcast
1:53 PM 59.0 °F - 52.0 °F 78% 29.84 in 10.0 mi NW 15.0 mph 24.2 mph 0.00 in   Overcast
2:53 PM 55.0 °F - 50.0 °F 83% 29.88 in 10.0 mi WNW 13.8 mph 24.2 mph N/A   Overcast
3:53 PM 51.1 °F - 45.0 °F 80% 29.93 in 10.0 mi WNW 17.3 mph 24.2 mph N/A   Overcast
4:53 PM 50.0 °F - 43.0 °F 77% 29.96 in 10.0 mi NW 17.3 mph 23.0 mph N/A   Overcast
5:05 PM 50.0 °F - 42.8 °F 76% 29.97 in 10.0 mi NNW 15.0 mph 23.0 mph N/A   Overcast
5:53 PM 48.9 °F - 41.0 °F 74% 30.01 in 10.0 mi NNW 19.6 mph 27.6 mph N/A   Overcast
6:53 PM 46.4 °F 40.7 °F 39.2 °F 76% 30.05 in 10.0 mi NNW 12.7 mph - N/A   Overcast
7:53 PM 48.0 °F - 37.9 °F 68% 30.07 in 10.0 mi NNW 13.8 mph 20.7 mph 0.00 in   Overcast
8:53 PM 46.9 °F - 37.0 °F 68% 30.10 in 10.0 mi NNW 13.8 mph 20.7 mph 0.00 in   Overcast
9:53 PM 46.4 °F 42.4 °F 37.4 °F 71% 30.12 in 10.0 mi NNW 8.1 mph - N/A Rain Light Rain
10:53 PM 48.0 °F - 36.0 °F 63% 30.11 in 10.0 mi NW 16.1 mph - 0.00 in   Overcast
11:53 PM 48.0 °F - 35.1 °F 61% 30.12 in 10.0 mi NNW 11.5 mph 20.7 mph N/A   Overcast